Flag for Israel Weather past 2 weeks in Tel Aviv, Israel

Now
75 °F

Passing clouds.


Feels Like: 77 °F
Forecast: 76 / 87 °F
Wind: 3 mph from North

Location: Ben Gurion International Airport

Current Time: Sep 2, 2014 at 7:30:55 AM

Latest Report: Sep 2, 2014 at 6:50 AM


Visibility: N/A

Pressure: 29.80 "Hg

Humidity: 74%

Dew point: 66 °F

Location of Tel AvivLocation

Historic Weather in Tel Aviv — Graph

°F

Tel Aviv temperature yesterday

Maximum temperature yesterday: 88 °F (at 11:50 AM)
Minimum temperature yesterday: 77 °F (at 6:20 AM)
Average temperature yesterday: 82 °F

Past Weeks' High & Low Weather Summary

 TemperatureHumidityPressure
High93 °F (Aug 18, 11:20 AM)89% (Aug 23, 4:50 AM)29.95 "Hg (Aug 23, 4:50 AM)
Low73 °F (Aug 26, 5:20 AM)46% (Aug 20, 11:20 AM)29.65 "Hg (Aug 18, 6:20 AM)
Average83 °F68%29.79 "Hg
* Reported Aug 18 6:20 AM — Sep 2 6:20 AM, Tel Aviv, Weather by CustomWeather, © 2014

Note: Actual official high and low records may vary slightly from our data, if they occured in-between our weather recording intervals... More about our weather records

Advertising

Tel Aviv weather history for previous 24 hours

 ConditionsComfort  
Time TempWeatherWind HumidityBarometerVisibility
6:20 AM
Sep 2
75 °FPassing clouds.3 mph74%29.77 "HgN/A
5:50 AM75 °FPassing clouds.6 mph74%29.77 "HgN/A
5:20 AM75 °FPassing clouds.3 mph74%29.77 "HgN/A
4:50 AM77 °FPassing clouds.3 mph74%29.77 "HgN/A
4:20 AM77 °FPassing clouds.6 mph74%29.77 "HgN/A
3:50 AM75 °FPassing clouds.5 mph74%29.77 "HgN/A
3:20 AM77 °FPassing clouds.5 mph74%29.77 "HgN/A
2:50 AM77 °FPassing clouds.5 mph69%29.77 "HgN/A
2:20 AM77 °FPassing clouds.3 mph69%29.77 "HgN/A
1:50 AM77 °FPassing clouds.2 mph69%29.77 "HgN/A
1:20 AM77 °FPassing clouds.3 mph69%29.77 "HgN/A
12:50 AM79 °FPassing clouds.2 mph65%29.80 "HgN/A
12:20 AM79 °FPassing clouds.3 mph65%29.80 "HgN/A
11:20 PM
Sep 1
79 °FPassing clouds.5 mph70%29.80 "HgN/A
10:50 PM81 °FPassing clouds.6 mph66%29.80 "HgN/A
10:20 PM81 °FPassing clouds.6 mph66%29.80 "HgN/A
9:50 PM81 °FPassing clouds.5 mph66%29.80 "HgN/A
9:20 PM81 °FPassing clouds.8 mph66%29.80 "HgN/A
8:50 PM81 °FPassing clouds.8 mph66%29.80 "HgN/A
8:20 PM81 °FPassing clouds.5 mph70%29.77 "HgN/A
7:20 PM82 °FPartly sunny.9 mph66%29.77 "HgN/A
6:50 PM82 °FScattered clouds.10 mph62%29.77 "HgN/A
6:20 PM82 °FPartly sunny.12 mph66%29.77 "HgN/A
5:50 PM84 °FPartly sunny.13 mph62%29.77 "HgN/A
5:20 PM84 °FScattered clouds.14 mph62%29.77 "HgN/A
4:50 PM84 °FScattered clouds.15 mph62%29.74 "HgN/A
4:20 PM84 °FScattered clouds.15 mph66%29.74 "HgN/A
3:50 PM86 °FScattered clouds.15 mph62%29.77 "HgN/A
3:20 PM86 °FScattered clouds.15 mph62%29.77 "HgN/A
2:50 PM86 °FScattered clouds.18 mph62%29.77 "HgN/A
2:20 PM88 °FScattered clouds.16 mph59%29.77 "HgN/A
1:50 PM88 °FScattered clouds.15 mph59%29.77 "HgN/A
1:20 PM88 °FScattered clouds.15 mph62%29.77 "HgN/A
12:50 PM88 °FScattered clouds.14 mph59%29.77 "HgN/A
12:20 PM88 °FScattered clouds.13 mph59%29.77 "HgN/A
11:50 AM88 °FScattered clouds.13 mph59%29.77 "HgN/A
11:20 AM86 °FScattered clouds.10 mph59%29.77 "HgN/A
10:50 AM86 °FScattered clouds.12 mph59%29.77 "HgN/A
10:20 AM86 °FScattered clouds.9 mph59%29.77 "HgN/A
9:50 AM86 °FScattered clouds.5 mph62%29.80 "HgN/A
9:20 AM84 °FScattered clouds.6 mph66%29.80 "HgN/A
8:50 AM82 °FPassing clouds.6 mph74%29.77 "HgN/A
8:20 AM81 °FPassing clouds.8 mph79%29.77 "HgN/A
7:50 AM81 °FPassing clouds.7 mph74%29.77 "HgN/A
7:20 AM79 °FPassing clouds.6 mph79%29.77 "Hg6 mi
Weather by CustomWeather, © 2014

See weather overviewHow to use our weather pages